{"data":{"norad_id":64302,"epoch":"2026-05-24T21:40:26.031648Z","epoch_age_seconds":82758,"freshness":"FRESH","line1":"1 64302U 25123M   26144.90307907  .00026701  00000+0  64588-3 0  9999","line2":"2 64302  70.0002 319.4360 0003522 270.0239  90.0539 15.41039327 54108","mean_motion":15.41039327,"eccentricity":0.0003522,"inclination_deg":70.0002,"raan_deg":319.436,"arg_perigee_deg":270.0239,"mean_anomaly_deg":90.0539,"bstar":0.00064588,"rev_number":5410,"period_min":93.44342968867,"perigee_km":440.63822522752,"apogee_km":445.44306275995,"semimajor_km":6821.1776439937,"source":"CELESTRAK","updated_at":"2026-05-25T13:38:20.367809Z"}}